START_TIME,STEP,MOV.,H8,t_acc.,H43,t_acc.,M25,t_acc.,H9,t_acc.
1979-07-03 06:00:30.340 ,0,1,0.,12.0,0.,12.0,0.,12.0,0.,12.0
1979-07-03 06:00:42.340 ,0,1,0.,12.0,0.,12.0,0.,12.0,0.,12.0
1979-07-03 06:00:54.340 ,4,1,0.,12.0,0.,12.0,0.,12.0,0.,12.0
1979-07-03 06:01:06.340 ,4,1,0.,12.0,0.,12.0,0.,12.0,0.,12.0
1979-07-03 06:01:18.340 ,7,1,0.,12.0,0.,12.0,0.,12.0,0.,12.0
1979-07-03 06:01:30.340 ,7,1,0.,12.0,0.,12.0,0.,12.0,0.,12.0
1979-07-03 06:01:42.340 ,3,1,0.,12.0,0.,12.0,0.,12.0,0.,12.0
1979-07-03 06:01:54.340 ,3,1,0.,12.0,0.,12.0,0.,12.0,0.,12.0
1979-07-03 06:02:06.340 ,0,1,0.,12.0,0.,12.0,0.,12.0,0.,12.0
1979-07-03 06:02:18.340 ,0,1,0.,12.0,0.,12.0,0.,12.0,0.,12.0
1979-07-03 06:02:30.340 ,4,1,0.,12.0,0.,12.0,0.,12.0,0.,12.0
1979-07-03 06:02:42.340 ,4,1,0.,12.0,0.,12.0,0.,12.0,0.,12.0
1979-07-03 06:02:54.340 ,7,1,0.,12.0,0.,12.0,0.,12.0,0.,12.0
1979-07-03 06:03:06.340 ,7,1,0.,12.0,0.,12.0,0.,12.0,0.,12.0
1979-07-03 06:03:18.340 ,3,1,0.,12.0,0.,12.0,0.,12.0,0.,12.0
1979-07-03 06:03:30.340 ,3,1,1.,12.0,0.,12.0,0.,12.0,0.,12.0
1979-07-03 06:03:42.340 ,0,1,0.,12.0,0.,12.0,0.,12.0,0.,12.0
1979-07-03 06:03:54.340 ,0,1,0.,12.0,0.,12.0,0.,12.0,0.,12.0
1979-07-03 06:04:06.340 ,4,1,0.,12.0,0.,12.0,0.,12.0,0.,12.0
1979-07-03 06:04:18.340 ,4,1,0.,12.0,0.,12.0,0.,12.0,0.,12.0
1979-07-03 06:04:30.340 ,7,1,0.,12.0,0.,12.0,0.,12.0,0.,12.0
1979-07-03 06:04:42.340 ,7,1,0.,12.0,0.,12.0,0.,12.0,0.,12.0
1979-07-03 06:04:54.340 ,3,1,0.,12.0,0.,12.0,0.,12.0,0.,12.0
1979-07-03 06:05:06.340 ,3,1,0.,12.0,0.,12.0,0.,12.0,0.,12.0
1979-07-03 06:05:18.340 ,0,1,0.,12.0,0.,12.0,0.,12.0,0.,12.0
1979-07-03 06:05:30.340 ,0,1,0.,12.0,0.,12.0,0.,12.0,0.,12.0
1979-07-03 06:05:42.340 ,0,0,0.,12.0,0.,12.0,0.,12.0,0.,12.0
1979-07-03 06:05:54.340 ,0,0,0.,12.0,0.,12.0,0.,12.0,0.,12.0
1979-07-03 06:06:06.340 ,0,0,0.,12.0,0.,12.0,0.,12.0,0.,12.0
1979-07-03 06:06:18.340 ,0,0,0.,12.0,0.,12.0,0.,12.0,0.,12.0
1979-07-03 06:06:30.340 ,5,0,0.,12.0,0.,12.0,0.,12.0,0.,12.0
1979-07-03 06:06:42.340 ,5,0,0.,12.0,0.,12.0,0.,12.0,0.,12.0
1979-07-03 06:06:54.340 ,5,0,0.,12.0,0.,12.0,0.,12.0,0.,12.0
1979-07-03 06:07:06.340 ,5,0,0.,12.0,0.,12.0,0.,12.0,0.,12.0
1979-07-03 06:07:18.340 ,4,0,0.,12.0,0.,12.0,0.,12.0,0.,12.0
1979-07-03 06:07:30.340 ,4,0,0.,12.0,0.,12.0,0.,12.0,0.,12.0
1979-07-03 06:07:42.340 ,4,0,0.,12.0,0.,12.0,0.,12.0,0.,12.0
1979-07-03 06:07:54.340 ,4,0,0.,12.0,0.,12.0,0.,12.0,0.,12.0
1979-07-03 06:08:06.340 ,3,0,0.,12.0,0.,12.0,0.,12.0,0.,12.0
1979-07-03 06:08:18.340 ,3,0,0.,12.0,0.,12.0,0.,12.0,0.,12.0
1979-07-03 06:08:30.340 ,3,0,0.,12.0,0.,12.0,0.,12.0,0.,12.0
1979-07-03 06:08:42.340 ,3,0,0.,12.0,0.,12.0,0.,12.0,0.,12.0
1979-07-03 06:08:54.340 ,2,0,0.,12.0,0.,12.0,0.,12.0,0.,12.0
1979-07-03 06:09:06.340 ,2,0,0.,12.0,0.,12.0,0.,12.0,0.,12.0
1979-07-03 06:09:18.340 ,2,0,0.,12.0,0.,12.0,0.,12.0,0.,12.0
1979-07-03 06:09:30.340 ,2,0,0.,12.0,0.,12.0,0.,12.0,0.,12.0
1979-07-03 06:09:42.340 ,1,0,0.,12.0,0.,12.0,0.,12.0,0.,12.0
1979-07-03 06:09:54.340 ,1,0,0.,12.0,0.,12.0,0.,12.0,0.,12.0
1979-07-03 06:10:06.340 ,1,0,0.,12.0,0.,12.0,0.,12.0,0.,12.0
1979-07-03 06:10:18.340 ,1,0,0.,12.0,0.,12.0,0.,12.0,0.,12.0
1979-07-03 06:10:30.340 ,0,0,0.,12.0,0.,12.0,0.,12.0,0.,12.0
1979-07-03 06:10:42.340 ,0,0,0.,12.0,0.,12.0,0.,12.0,0.,12.0
1979-07-03 06:10:54.340 ,0,0,0.,12.0,0.,12.0,0.,12.0,0.,12.0
1979-07-03 06:11:06.340 ,0,0,0.,12.0,0.,12.0,0.,12.0,0.,12.0
1979-07-03 06:11:18.340 ,0,0,0.,12.0,0.,12.0,0.,12.0,0.,12.0
1979-07-03 06:11:30.340 ,0,0,0.,12.0,0.,12.0,0.,12.0,0.,12.0
1979-07-03 06:11:42.340 ,0,0,0.,12.0,0.,12.0,0.,12.0,0.,12.0
1979-07-03 06:11:54.340 ,0,0,0.,12.0,0.,12.0,0.,12.0,0.,12.0
1979-07-03 06:12:06.340 ,1,0,0.,12.0,0.,12.0,0.,12.0,0.,12.0
1979-07-03 06:12:18.340 ,1,0,0.,12.0,0.,12.0,0.,12.0,0.,12.0
1979-07-03 06:12:30.340 ,1,0,0.,12.0,0.,12.0,0.,12.0,0.,12.0
1979-07-03 06:12:42.340 ,1,0,0.,12.0,0.,12.0,0.,12.0,0.,12.0
1979-07-03 06:12:54.340 ,2,0,0.,12.0,0.,12.0,0.,12.0,0.,12.0
1979-07-03 06:13:06.340 ,2,0,0.,12.0,0.,12.0,0.,12.0,0.,12.0
1979-07-03 06:13:18.340 ,2,0,0.,12.0,0.,12.0,0.,12.0,0.,12.0
1979-07-03 06:13:30.340 ,2,0,0.,12.0,0.,12.0,0.,12.0,0.,12.0
1979-07-03 06:13:42.340 ,3,0,0.,12.0,0.,12.0,0.,12.0,0.,12.0
1979-07-03 06:13:54.340 ,3,0,0.,12.0,0.,12.0,0.,12.0,0.,12.0
1979-07-03 06:14:06.340 ,3,0,0.,12.0,0.,12.0,0.,12.0,0.,12.0
1979-07-03 06:14:18.340 ,3,0,0.,12.0,0.,12.0,0.,12.0,0.,12.0
1979-07-03 06:14:30.340 ,4,0,0.,12.0,0.,12.0,0.,12.0,0.,12.0
1979-07-03 06:14:42.340 ,4,0,0.,12.0,0.,12.0,0.,12.0,0.,12.0
1979-07-03 06:14:54.340 ,4,0,0.,12.0,0.,12.0,0.,12.0,0.,12.0
1979-07-03 06:15:06.340 ,4,0,0.,12.0,0.,12.0,0.,12.0,0.,12.0
1979-07-03 06:15:18.340 ,5,0,0.,12.0,0.,12.0,0.,12.0,0.,12.0
1979-07-03 06:15:30.340 ,5,0,0.,12.0,0.,12.0,0.,12.0,0.,12.0
1979-07-03 06:15:42.340 ,5,0,0.,12.0,0.,12.0,0.,12.0,0.,12.0
1979-07-03 06:15:54.340 ,5,0,0.,12.0,0.,12.0,0.,12.0,0.,12.0
1979-07-03 06:16:06.340 ,6,0,0.,12.0,0.,12.0,0.,12.0,0.,12.0
1979-07-03 06:16:18.340 ,6,0,0.,12.0,0.,12.0,0.,12.0,0.,12.0
1979-07-03 06:16:30.340 ,6,0,0.,12.0,0.,12.0,0.,12.0,0.,12.0
1979-07-03 06:16:42.340 ,6,0,0.,12.0,0.,12.0,0.,12.0,0.,12.0
1979-07-03 06:16:54.340 ,7,0,0.,12.0,0.,12.0,0.,12.0,0.,12.0
1979-07-03 06:17:06.340 ,7,0,0.,12.0,0.,12.0,0.,12.0,0.,12.0
1979-07-03 06:17:18.340 ,7,0,0.,12.0,0.,12.0,0.,12.0,0.,12.0
1979-07-03 06:17:30.340 ,7,0,0.,12.0,0.,12.0,0.,12.0,0.,12.0
1979-07-03 06:17:42.340 ,7,0,0.,12.0,0.,12.0,0.,12.0,0.,12.0
1979-07-03 06:17:54.340 ,7,0,0.,12.0,0.,12.0,0.,12.0,0.,12.0
1979-07-03 06:18:06.340 ,7,0,0.,12.0,0.,12.0,0.,12.0,0.,12.0
1979-07-03 06:18:18.340 ,7,0,0.,12.0,0.,12.0,0.,12.0,0.,12.0
1979-07-03 06:18:30.340 ,6,0,0.,12.0,0.,12.0,0.,12.0,0.,12.0
1979-07-03 06:18:42.340 ,6,0,0.,12.0,0.,12.0,0.,12.0,0.,12.0
1979-07-03 06:18:54.340 ,6,0,0.,12.0,0.,12.0,0.,12.0,0.,12.0
1979-07-03 06:19:06.340 ,6,0,0.,12.0,0.,12.0,0.,12.0,0.,12.0
1979-07-03 06:19:18.340 ,5,0,0.,12.0,0.,12.0,0.,12.0,0.,12.0
1979-07-03 06:19:30.340 ,5,0,0.,12.0,0.,12.0,0.,12.0,0.,12.0
1979-07-03 06:19:42.340 ,5,0,0.,12.0,0.,12.0,0.,12.0,0.,12.0
1979-07-03 06:19:54.340 ,5,0,0.,12.0,0.,12.0,0.,12.0,0.,12.0
1979-07-03 06:20:06.340 ,4,0,0.,12.0,0.,12.0,0.,12.0,0.,12.0
1979-07-03 06:20:18.340 ,4,0,0.,12.0,0.,12.0,0.,12.0,0.,12.0
1979-07-03 06:20:30.340 ,4,0,0.,12.0,0.,12.0,0.,12.0,0.,12.0
1979-07-03 06:20:42.340 ,4,0,0.,12.0,0.,12.0,0.,12.0,0.,12.0
1979-07-03 06:20:54.340 ,3,0,0.,12.0,0.,12.0,0.,12.0,0.,12.0
1979-07-03 06:21:06.340 ,3,0,0.,12.0,0.,12.0,0.,12.0,0.,12.0
1979-07-03 06:21:18.340 ,3,0,0.,12.0,0.,12.0,0.,12.0,0.,12.0
1979-07-03 06:21:30.340 ,3,0,0.,12.0,0.,12.0,0.,12.0,0.,12.0
1979-07-03 06:21:42.340 ,2,0,0.,12.0,0.,12.0,0.,12.0,0.,12.0
1979-07-03 06:21:54.340 ,2,0,0.,12.0,0.,12.0,0.,12.0,0.,12.0
1979-07-03 06:22:06.340 ,2,0,0.,12.0,0.,12.0,0.,12.0,0.,12.0
1979-07-03 06:22:18.340 ,2,0,0.,12.0,0.,12.0,0.,12.0,0.,12.0
1979-07-03 06:22:30.340 ,1,0,0.,12.0,0.,12.0,0.,12.0,0.,12.0
1979-07-03 06:22:42.340 ,1,0,0.,12.0,0.,12.0,0.,12.0,0.,12.0
1979-07-03 06:22:54.340 ,1,0,0.,12.0,0.,12.0,0.,12.0,0.,12.0
1979-07-03 06:23:06.340 ,1,0,0.,12.0,0.,12.0,0.,12.0,0.,12.0
1979-07-03 06:23:18.340 ,0,0,0.,12.0,0.,12.0,0.,12.0,0.,12.0
1979-07-03 06:23:30.340 ,0,0,0.,12.0,0.,12.0,0.,12.0,0.,12.0
1979-07-03 06:23:42.340 ,0,0,0.,12.0,0.,12.0,0.,12.0,0.,12.0
1979-07-03 06:23:54.340 ,0,0,0.,12.0,0.,12.0,0.,12.0,0.,12.0
1979-07-03 06:24:06.340 ,0,0,0.,12.0,0.,12.0,0.,12.0,0.,12.0
1979-07-03 06:24:18.340 ,0,0,0.,12.0,0.,12.0,0.,12.0,0.,12.0
1979-07-03 06:24:30.340 ,0,0,0.,12.0,0.,12.0,0.,12.0,0.,12.0
1979-07-03 06:24:42.340 ,0,0,0.,12.0,0.,12.0,0.,12.0,0.,12.0
1979-07-03 06:24:54.340 ,1,0,0.,12.0,0.,12.0,0.,12.0,0.,12.0
1979-07-03 06:25:06.340 ,1,0,0.,12.0,0.,12.0,0.,12.0,0.,12.0
1979-07-03 06:25:18.340 ,1,0,0.,12.0,0.,12.0,0.,12.0,0.,12.0
1979-07-03 06:25:30.340 ,1,0,0.,12.0,0.,12.0,0.,12.0,0.,12.0
1979-07-03 06:25:42.340 ,2,0,0.,12.0,0.,12.0,0.,12.0,0.,12.0
1979-07-03 06:25:54.340 ,2,0,0.,12.0,0.,12.0,0.,12.0,0.,12.0
1979-07-03 06:26:06.340 ,2,0,0.,12.0,0.,12.0,0.,12.0,0.,12.0
1979-07-03 06:26:18.340 ,2,0,0.,12.0,0.,12.0,0.,12.0,0.,12.0
1979-07-03 06:26:30.340 ,3,0,0.,12.0,0.,12.0,0.,12.0,0.,12.0
1979-07-03 06:26:42.340 ,3,0,0.,12.0,0.,12.0,0.,12.0,0.,12.0
1979-07-03 06:26:54.340 ,3,0,0.,12.0,0.,12.0,0.,12.0,0.,12.0
1979-07-03 06:27:06.340 ,3,0,0.,12.0,0.,12.0,0.,12.0,0.,12.0
1979-07-03 06:27:18.340 ,4,0,0.,12.0,0.,12.0,0.,12.0,0.,12.0
1979-07-03 06:27:30.340 ,4,0,0.,12.0,0.,12.0,0.,12.0,0.,12.0
1979-07-03 06:27:42.340 ,4,0,0.,12.0,0.,12.0,0.,12.0,0.,12.0
1979-07-03 06:27:54.340 ,4,0,0.,12.0,0.,12.0,0.,12.0,0.,12.0
1979-07-03 06:28:06.340 ,5,0,0.,12.0,0.,12.0,0.,12.0,0.,12.0
1979-07-03 06:28:18.340 ,5,0,0.,12.0,0.,12.0,0.,12.0,0.,12.0
1979-07-03 06:28:30.340 ,5,0,0.,12.0,0.,12.0,0.,12.0,0.,12.0
1979-07-03 06:28:42.340 ,5,0,0.,12.0,0.,12.0,0.,12.0,0.,12.0
1979-07-03 06:28:54.340 ,6,0,0.,12.0,0.,12.0,0.,12.0,0.,12.0
1979-07-03 06:29:06.340 ,6,0,0.,12.0,0.,12.0,0.,12.0,0.,12.0
1979-07-03 06:29:18.340 ,6,0,0.,12.0,0.,12.0,0.,12.0,0.,12.0
1979-07-03 06:29:30.340 ,6,0,0.,12.0,0.,12.0,0.,12.0,0.,12.0
1979-07-03 06:29:42.340 ,7,0,0.,12.0,0.,12.0,0.,12.0,0.,12.0
1979-07-03 06:29:54.340 ,7,0,0.,12.0,0.,12.0,0.,12.0,0.,12.0
1979-07-03 06:30:06.340 ,7,0,0.,12.0,0.,12.0,0.,12.0,0.,12.0
1979-07-03 06:30:18.340 ,7,0,0.,12.0,0.,12.0,0.,12.0,0.,12.0
1979-07-03 06:30:30.330 ,7,0,0.,12.0,0.,12.0,0.,12.0,0.,12.0
1979-07-03 06:30:42.330 ,7,0,0.,12.0,0.,12.0,0.,12.0,0.,12.0
1979-07-03 06:30:54.330 ,7,0,0.,12.0,0.,12.0,0.,12.0,0.,12.0
1979-07-03 06:31:06.330 ,7,0,0.,12.0,0.,12.0,0.,12.0,0.,12.0
1979-07-03 06:31:18.330 ,6,0,0.,12.0,0.,12.0,0.,12.0,0.,12.0
1979-07-03 06:31:30.330 ,6,0,0.,12.0,0.,12.0,0.,12.0,0.,12.0
1979-07-03 06:31:42.330 ,6,0,0.,12.0,0.,12.0,0.,12.0,0.,12.0
1979-07-03 06:31:54.330 ,6,0,0.,12.0,0.,12.0,0.,12.0,0.,12.0
1979-07-03 06:32:06.330 ,5,0,0.,12.0,0.,12.0,0.,12.0,0.,12.0
1979-07-03 06:32:18.330 ,5,0,0.,12.0,0.,12.0,0.,12.0,0.,12.0
1979-07-03 06:32:30.330 ,5,0,0.,12.0,0.,12.0,0.,12.0,0.,12.0
1979-07-03 06:32:42.330 ,5,0,0.,12.0,0.,12.0,0.,12.0,0.,12.0
1979-07-03 06:32:54.330 ,4,0,0.,12.0,0.,12.0,0.,12.0,0.,12.0
1979-07-03 06:33:06.330 ,4,0,0.,12.0,0.,12.0,0.,12.0,0.,12.0
1979-07-03 06:33:18.330 ,4,0,0.,12.0,0.,12.0,0.,12.0,0.,12.0
1979-07-03 06:33:30.330 ,4,0,0.,12.0,0.,12.0,0.,12.0,0.,12.0
1979-07-03 06:33:42.330 ,3,0,0.,12.0,0.,12.0,0.,12.0,0.,12.0
1979-07-03 06:33:54.330 ,3,0,0.,12.0,0.,12.0,0.,12.0,0.,12.0
1979-07-03 06:34:06.330 ,3,0,0.,12.0,0.,12.0,0.,12.0,0.,12.0
1979-07-03 06:34:18.330 ,3,0,0.,12.0,0.,12.0,0.,12.0,0.,12.0
1979-07-03 06:34:30.330 ,2,0,0.,12.0,0.,12.0,0.,12.0,0.,12.0
1979-07-03 06:34:42.330 ,2,0,0.,12.0,0.,12.0,0.,12.0,0.,12.0
1979-07-03 06:34:54.330 ,2,0,0.,12.0,0.,12.0,0.,12.0,0.,12.0
1979-07-03 06:35:06.330 ,2,0,0.,12.0,0.,12.0,0.,12.0,0.,12.0
1979-07-03 06:35:18.330 ,1,0,0.,12.0,0.,12.0,0.,12.0,0.,12.0
1979-07-03 06:35:30.330 ,1,0,0.,12.0,0.,12.0,0.,12.0,0.,12.0
1979-07-03 06:35:42.330 ,1,0,0.,12.0,0.,12.0,0.,12.0,0.,12.0
1979-07-03 06:35:54.330 ,1,0,0.,12.0,0.,12.0,0.,12.0,0.,12.0
1979-07-03 06:36:06.330 ,0,0,0.,12.0,0.,12.0,0.,12.0,0.,12.0
1979-07-03 06:36:18.330 ,0,0,0.,12.0,0.,12.0,0.,12.0,0.,12.0
1979-07-03 06:36:30.330 ,0,0,0.,12.0,0.,12.0,0.,12.0,0.,12.0
1979-07-03 06:36:42.330 ,0,0,0.,12.0,0.,12.0,0.,12.0,0.,12.0
1979-07-03 06:36:54.330 ,0,0,0.,12.0,0.,12.0,0.,12.0,0.,12.0
1979-07-03 06:37:06.330 ,0,0,0.,12.0,0.,12.0,0.,12.0,0.,12.0
1979-07-03 06:37:18.330 ,0,0,0.,12.0,0.,12.0,0.,12.0,0.,12.0
1979-07-03 06:37:30.330 ,0,0,0.,12.0,0.,12.0,0.,12.0,0.,12.0
1979-07-03 06:37:42.330 ,1,0,0.,12.0,0.,12.0,0.,12.0,0.,12.0
1979-07-03 06:37:54.330 ,1,0,0.,12.0,0.,12.0,0.,12.0,0.,12.0
1979-07-03 06:38:06.330 ,1,0,0.,12.0,0.,12.0,0.,12.0,0.,12.0
1979-07-03 06:38:18.330 ,1,0,0.,12.0,0.,12.0,0.,12.0,0.,12.0
1979-07-03 06:38:30.330 ,2,0,0.,12.0,0.,12.0,0.,12.0,0.,12.0
1979-07-03 06:38:42.330 ,2,0,0.,12.0,0.,12.0,0.,12.0,0.,12.0
1979-07-03 06:38:54.330 ,2,0,0.,12.0,0.,12.0,0.,12.0,0.,12.0
1979-07-03 06:39:06.330 ,2,0,0.,12.0,0.,12.0,0.,12.0,0.,12.0
1979-07-03 06:39:18.330 ,3,0,0.,12.0,0.,12.0,0.,12.0,0.,12.0
1979-07-03 06:39:30.330 ,3,0,0.,12.0,0.,12.0,0.,12.0,0.,12.0
1979-07-03 06:39:42.330 ,3,0,0.,12.0,0.,12.0,0.,12.0,0.,12.0
1979-07-03 06:39:54.330 ,3,0,0.,12.0,0.,12.0,0.,12.0,0.,12.0
1979-07-03 06:40:06.330 ,4,0,0.,12.0,0.,12.0,0.,12.0,0.,12.0
1979-07-03 06:40:18.330 ,4,0,0.,12.0,0.,12.0,0.,12.0,0.,12.0
1979-07-03 06:40:30.330 ,4,0,0.,12.0,0.,12.0,0.,12.0,0.,12.0
1979-07-03 06:40:42.330 ,4,0,0.,12.0,0.,12.0,0.,12.0,0.,12.0
1979-07-03 06:40:54.330 ,5,0,0.,12.0,0.,12.0,0.,12.0,0.,12.0
1979-07-03 06:41:06.330 ,5,0,0.,12.0,0.,12.0,0.,12.0,0.,12.0
1979-07-03 06:41:18.330 ,5,0,0.,12.0,0.,12.0,0.,12.0,0.,12.0
1979-07-03 06:41:30.330 ,5,0,0.,12.0,0.,12.0,0.,12.0,0.,12.0
1979-07-03 06:41:42.330 ,6,0,0.,12.0,0.,12.0,0.,12.0,0.,12.0
1979-07-03 06:41:54.330 ,6,0,0.,12.0,0.,12.0,0.,12.0,0.,12.0
1979-07-03 06:42:06.330 ,6,0,0.,12.0,0.,12.0,0.,12.0,0.,12.0
1979-07-03 06:42:18.330 ,6,0,0.,12.0,0.,12.0,0.,12.0,0.,12.0
1979-07-03 06:42:06.330 ,6,0,0.,12.0,0.,12.0,0.,12.0,0.,12.0
1979-07-03 06:42:18.330 ,6,0,0.,12.0,0.,12.0,0.,12.0,0.,12.0
1979-07-03 06:42:30.330 ,7,0,0.,12.0,0.,12.0,0.,12.0,0.,12.0
1979-07-03 06:42:42.330 ,7,0,0.,12.0,0.,12.0,0.,12.0,0.,12.0
1979-07-03 06:42:54.330 ,7,0,0.,12.0,0.,12.0,0.,12.0,0.,12.0
1979-07-03 06:43:06.330 ,7,0,0.,12.0,0.,12.0,0.,12.0,0.,12.0
1979-07-03 06:43:18.330 ,3,1,0.,12.0,0.,12.0,0.,12.0,0.,12.0
1979-07-03 06:43:30.330 ,3,1,0.,12.0,0.,12.0,0.,12.0,0.,12.0
1979-07-03 06:43:42.330 ,0,1,0.,12.0,0.,12.0,0.,12.0,0.,12.0
1979-07-03 06:43:54.330 ,0,1,0.,12.0,0.,12.0,0.,12.0,0.,12.0
1979-07-03 06:44:06.330 ,4,1,0.,12.0,0.,12.0,0.,12.0,0.,12.0
1979-07-03 06:44:18.330 ,4,1,0.,12.0,0.,12.0,0.,12.0,0.,12.0
1979-07-03 06:44:30.330 ,7,1,0.,12.0,0.,12.0,0.,12.0,0.,12.0
1979-07-03 06:44:42.330 ,7,1,0.,12.0,0.,12.0,0.,12.0,0.,12.0
1979-07-03 06:44:54.330 ,3,1,0.,12.0,0.,12.0,0.,12.0,0.,12.0
1979-07-03 06:45:06.330 ,3,1,0.,12.0,0.,12.0,0.,12.0,0.,12.0
1979-07-03 06:45:18.330 ,0,1,0.,12.0,0.,12.0,0.,12.0,0.,12.0
1979-07-03 06:45:30.330 ,0,1,0.,12.0,0.,12.0,0.,12.0,0.,12.0
1979-07-03 06:45:42.330 ,4,1,0.,12.0,0.,12.0,0.,12.0,0.,12.0
1979-07-03 06:45:54.330 ,4,1,0.,12.0,0.,12.0,0.,12.0,0.,12.0
1979-07-03 06:46:06.330 ,7,1,0.,12.0,0.,12.0,0.,12.0,0.,12.0
1979-07-03 06:46:18.330 ,7,1,0.,12.0,0.,12.0,0.,12.0,0.,12.0
1979-07-03 06:46:30.330 ,3,1,0.,12.0,0.,12.0,0.,12.0,0.,12.0
1979-07-03 06:46:42.330 ,3,1,0.,12.0,0.,12.0,0.,12.0,0.,12.0
1979-07-03 06:46:54.330 ,0,1,0.,12.0,0.,12.0,0.,12.0,0.,12.0
1979-07-03 06:47:06.330 ,0,1,0.,12.0,0.,12.0,0.,12.0,0.,12.0
1979-07-03 06:47:18.330 ,4,1,0.,12.0,0.,12.0,0.,12.0,0.,12.0
1979-07-03 06:47:30.330 ,4,1,0.,12.0,0.,12.0,0.,12.0,0.,12.0
1979-07-03 06:47:42.330 ,7,1,0.,12.0,0.,12.0,0.,12.0,0.,12.0
1979-07-03 06:47:54.330 ,7,1,0.,12.0,0.,12.0,0.,12.0,0.,12.0
1979-07-03 06:48:06.330 ,3,1,0.,12.0,0.,12.0,0.,12.0,0.,12.0
1979-07-03 06:48:18.330 ,3,1,0.,12.0,0.,12.0,0.,12.0,0.,12.0
1979-07-03 06:48:30.330 ,0,1,0.,12.0,0.,12.0,0.,12.0,0.,12.0
1979-07-03 06:48:42.330 ,0,1,0.,12.0,0.,12.0,0.,12.0,0.,12.0
1979-07-03 06:48:54.330 ,4,1,0.,12.0,0.,12.0,0.,12.0,0.,12.0
1979-07-03 06:49:06.330 ,4,1,0.,12.0,0.,12.0,0.,12.0,0.,12.0
1979-07-03 06:49:18.330 ,7,1,0.,12.0,0.,12.0,0.,12.0,0.,12.0
1979-07-03 06:49:30.330 ,7,1,0.,12.0,0.,12.0,0.,12.0,0.,12.0
1979-07-03 06:49:42.330 ,3,1,0.,12.0,0.,12.0,0.,12.0,0.,12.0
1979-07-03 06:49:54.330 ,3,1,0.,12.0,0.,12.0,0.,12.0,0.,12.0
1979-07-03 06:50:06.330 ,0,1,0.,12.0,0.,12.0,0.,12.0,0.,12.0
1979-07-03 06:50:18.330 ,0,1,0.,12.0,0.,12.0,0.,12.0,0.,12.0
1979-07-03 06:50:30.330 ,4,1,0.,12.0,0.,12.0,0.,12.0,0.,12.0
1979-07-03 06:50:42.330 ,4,1,0.,12.0,0.,12.0,0.,12.0,0.,12.0
1979-07-03 06:50:54.330 ,7,1,0.,12.0,0.,12.0,0.,12.0,0.,12.0
1979-07-03 06:51:06.330 ,7,1,0.,12.0,0.,12.0,0.,12.0,0.,12.0
1979-07-03 06:51:18.330 ,3,1,0.,12.0,0.,12.0,0.,12.0,0.,12.0
1979-07-03 06:51:30.330 ,3,1,0.,12.0,0.,12.0,0.,12.0,0.,12.0
1979-07-03 06:51:42.330 ,0,1,0.,12.0,0.,12.0,0.,12.0,0.,12.0
1979-07-03 06:51:54.330 ,0,1,0.,12.0,0.,12.0,0.,12.0,0.,12.0
1979-07-03 06:52:06.330 ,4,1,0.,12.0,0.,12.0,0.,12.0,0.,12.0
1979-07-03 06:52:18.330 ,4,1,0.,12.0,0.,12.0,0.,12.0,0.,12.0
1979-07-03 06:52:30.330 ,7,1,0.,12.0,0.,12.0,0.,12.0,0.,12.0
1979-07-03 06:52:42.330 ,7,1,0.,12.0,0.,12.0,0.,12.0,0.,12.0
1979-07-03 06:52:54.330 ,3,1,0.,12.0,0.,12.0,0.,12.0,0.,12.0
1979-07-03 06:53:06.330 ,3,1,0.,12.0,0.,12.0,0.,12.0,0.,12.0
1979-07-03 06:53:18.330 ,0,1,0.,12.0,0.,12.0,0.,12.0,0.,12.0
1979-07-03 06:53:30.330 ,0,1,0.,12.0,0.,12.0,0.,12.0,0.,12.0
1979-07-03 06:53:42.330 ,0,0,0.,12.0,0.,12.0,0.,12.0,0.,12.0
1979-07-03 06:53:54.330 ,0,0,0.,12.0,0.,12.0,0.,12.0,0.,12.0
1979-07-03 06:54:06.330 ,0,0,0.,12.0,0.,12.0,0.,12.0,0.,12.0
1979-07-03 06:54:18.330 ,0,0,0.,12.0,0.,12.0,0.,12.0,0.,12.0
1979-07-03 06:54:30.330 ,5,0,0.,12.0,0.,12.0,0.,12.0,0.,12.0
1979-07-03 06:54:42.330 ,5,0,0.,12.0,0.,12.0,0.,12.0,0.,12.0
1979-07-03 06:54:54.330 ,5,0,0.,12.0,0.,12.0,0.,12.0,0.,12.0
1979-07-03 06:55:06.330 ,5,0,0.,12.0,0.,12.0,0.,12.0,0.,12.0
1979-07-03 06:55:18.330 ,4,0,0.,12.0,0.,12.0,0.,12.0,0.,12.0
1979-07-03 06:55:30.330 ,4,0,0.,12.0,0.,12.0,0.,12.0,0.,12.0
1979-07-03 06:55:42.330 ,4,0,0.,12.0,0.,12.0,0.,12.0,0.,12.0
1979-07-03 06:55:54.330 ,4,0,0.,12.0,0.,12.0,0.,12.0,0.,12.0
1979-07-03 06:56:06.330 ,3,0,0.,12.0,0.,12.0,0.,12.0,0.,12.0
1979-07-03 06:56:18.330 ,3,0,0.,12.0,0.,12.0,0.,12.0,0.,12.0
1979-07-03 06:56:30.330 ,3,0,0.,12.0,0.,12.0,0.,12.0,0.,12.0
1979-07-03 06:56:42.330 ,3,0,0.,12.0,0.,12.0,0.,12.0,0.,12.0
1979-07-03 06:56:54.330 ,2,0,0.,12.0,0.,12.0,0.,12.0,0.,12.0
1979-07-03 06:57:06.330 ,2,0,0.,12.0,0.,12.0,0.,12.0,0.,12.0
1979-07-03 06:57:18.330 ,2,0,0.,12.0,0.,12.0,0.,12.0,0.,12.0
1979-07-03 06:57:30.330 ,2,0,0.,12.0,0.,12.0,0.,12.0,0.,12.0
1979-07-03 06:57:42.330 ,1,0,0.,12.0,0.,12.0,0.,12.0,0.,12.0
1979-07-03 06:57:54.330 ,1,0,0.,12.0,0.,12.0,0.,12.0,0.,12.0
1979-07-03 06:58:06.330 ,1,0,0.,12.0,0.,12.0,0.,12.0,0.,12.0
1979-07-03 06:58:18.330 ,1,0,0.,12.0,0.,12.0,0.,12.0,0.,12.0
1979-07-03 06:58:30.330 ,0,0,0.,12.0,0.,12.0,0.,12.0,0.,12.0
1979-07-03 06:58:42.330 ,0,0,0.,12.0,0.,12.0,0.,12.0,0.,12.0
1979-07-03 06:58:54.330 ,0,0,0.,12.0,0.,12.0,0.,12.0,0.,12.0
1979-07-03 06:59:06.330 ,0,0,0.,12.0,0.,12.0,0.,12.0,0.,12.0
1979-07-03 06:59:18.330 ,0,0,0.,12.0,0.,12.0,0.,12.0,0.,12.0
1979-07-03 06:59:30.330 ,0,0,0.,12.0,0.,12.0,0.,12.0,0.,12.0
1979-07-03 06:59:42.330 ,0,0,0.,12.0,0.,12.0,0.,12.0,0.,12.0
1979-07-03 06:59:54.330 ,0,0,0.,12.0,0.,12.0,0.,12.0,0.,12.0
1979-07-03 07:00:06.330 ,1,0,0.,12.0,0.,12.0,0.,12.0,0.,12.0
1979-07-03 07:00:18.330 ,1,0,0.,12.0,0.,12.0,0.,12.0,0.,12.0
1979-07-03 07:00:30.330 ,1,0,0.,12.0,0.,12.0,0.,12.0,0.,12.0
1979-07-03 07:00:42.330 ,1,0,0.,12.0,0.,12.0,0.,12.0,0.,12.0
1979-07-03 07:00:54.330 ,2,0,0.,12.0,0.,12.0,0.,12.0,0.,12.0
1979-07-03 07:01:06.330 ,2,0,0.,12.0,0.,12.0,0.,12.0,0.,12.0
1979-07-03 07:01:18.330 ,2,0,0.,12.0,0.,12.0,0.,12.0,0.,12.0
1979-07-03 07:01:30.330 ,2,0,0.,12.0,0.,12.0,0.,12.0,0.,12.0
1979-07-03 07:01:42.330 ,3,0,0.,12.0,0.,12.0,0.,12.0,0.,12.0
1979-07-03 07:01:54.330 ,3,0,0.,12.0,0.,12.0,0.,12.0,0.,12.0
1979-07-03 07:02:06.330 ,3,0,0.,12.0,0.,12.0,0.,12.0,0.,12.0
1979-07-03 07:02:18.330 ,3,0,0.,12.0,0.,12.0,0.,12.0,0.,12.0
1979-07-03 07:02:30.330 ,4,0,0.,12.0,0.,12.0,0.,12.0,0.,12.0
1979-07-03 07:02:42.330 ,4,0,0.,12.0,0.,12.0,0.,12.0,0.,12.0
1979-07-03 07:02:54.330 ,4,0,0.,12.0,0.,12.0,0.,12.0,0.,12.0
1979-07-03 07:03:06.330 ,4,0,0.,12.0,0.,12.0,0.,12.0,0.,12.0
1979-07-03 07:03:18.330 ,5,0,0.,12.0,0.,12.0,0.,12.0,0.,12.0
1979-07-03 07:03:30.330 ,5,0,0.,12.0,0.,12.0,0.,12.0,0.,12.0
1979-07-03 07:03:42.330 ,5,0,0.,12.0,0.,12.0,0.,12.0,0.,12.0
1979-07-03 07:03:54.330 ,5,0,0.,12.0,0.,12.0,0.,12.0,0.,12.0
1979-07-03 07:04:06.330 ,6,0,0.,12.0,0.,12.0,0.,12.0,0.,12.0
1979-07-03 07:04:18.330 ,6,0,0.,12.0,0.,12.0,0.,12.0,0.,12.0
1979-07-03 07:04:30.330 ,6,0,0.,12.0,0.,12.0,0.,12.0,0.,12.0
1979-07-03 07:04:42.330 ,6,0,0.,12.0,0.,12.0,0.,12.0,0.,12.0
1979-07-03 07:04:54.330 ,7,0,0.,12.0,0.,12.0,0.,12.0,0.,12.0
1979-07-03 07:05:06.330 ,7,0,0.,12.0,0.,12.0,0.,12.0,0.,12.0
1979-07-03 07:05:18.330 ,7,0,0.,12.0,0.,12.0,0.,12.0,0.,12.0
1979-07-03 07:05:30.330 ,7,0,0.,12.0,0.,12.0,0.,12.0,0.,12.0
1979-07-03 07:05:42.330 ,7,0,0.,12.0,0.,12.0,0.,12.0,0.,12.0
1979-07-03 07:05:54.330 ,7,0,0.,12.0,0.,12.0,0.,12.0,0.,12.0
1979-07-03 07:06:06.330 ,7,0,0.,12.0,0.,12.0,0.,12.0,0.,12.0
1979-07-03 07:06:18.330 ,7,0,0.,12.0,0.,12.0,0.,12.0,0.,12.0
1979-07-03 07:06:30.330 ,6,0,0.,12.0,0.,12.0,0.,12.0,0.,12.0
1979-07-03 07:06:42.330 ,6,0,0.,12.0,0.,12.0,0.,12.0,0.,12.0
1979-07-03 07:06:54.330 ,6,0,0.,12.0,0.,12.0,0.,12.0,0.,12.0
1979-07-03 07:07:06.330 ,6,0,0.,12.0,0.,12.0,0.,12.0,0.,12.0
1979-07-03 07:07:18.330 ,5,0,0.,12.0,0.,12.0,0.,12.0,0.,12.0
1979-07-03 07:07:30.330 ,5,0,0.,12.0,0.,12.0,0.,12.0,0.,12.0
1979-07-03 07:07:42.330 ,5,0,0.,12.0,0.,12.0,0.,12.0,0.,12.0
1979-07-03 07:07:54.330 ,5,0,0.,12.0,0.,12.0,0.,12.0,0.,12.0
1979-07-03 07:08:06.330 ,4,0,0.,12.0,0.,12.0,0.,12.0,0.,12.0
1979-07-03 07:08:18.330 ,4,0,0.,12.0,0.,12.0,0.,12.0,0.,12.0
1979-07-03 07:08:30.330 ,4,0,0.,12.0,0.,12.0,0.,12.0,0.,12.0
1979-07-03 07:08:42.330 ,4,0,0.,12.0,0.,12.0,0.,12.0,0.,12.0
1979-07-03 07:08:54.330 ,3,0,0.,12.0,0.,12.0,0.,12.0,0.,12.0
1979-07-03 07:09:06.330 ,3,0,0.,12.0,0.,12.0,0.,12.0,0.,12.0
1979-07-03 07:09:18.330 ,3,0,0.,12.0,0.,12.0,0.,12.0,0.,12.0
1979-07-03 07:09:30.330 ,3,0,0.,12.0,0.,12.0,0.,12.0,0.,12.0
1979-07-03 07:09:42.330 ,2,0,0.,12.0,0.,12.0,0.,12.0,0.,12.0
1979-07-03 07:09:54.330 ,2,0,0.,12.0,0.,12.0,0.,12.0,0.,12.0
1979-07-03 07:10:06.330 ,2,0,0.,12.0,0.,12.0,0.,12.0,0.,12.0
1979-07-03 07:10:18.330 ,2,0,0.,12.0,0.,12.0,0.,12.0,0.,12.0
1979-07-03 07:10:30.330 ,1,0,0.,12.0,0.,12.0,0.,12.0,0.,12.0
1979-07-03 07:10:42.330 ,1,0,0.,12.0,0.,12.0,0.,12.0,0.,12.0
1979-07-03 07:10:54.330 ,1,0,0.,12.0,0.,12.0,0.,12.0,0.,12.0
1979-07-03 07:11:06.330 ,1,0,0.,12.0,0.,12.0,0.,12.0,0.,12.0
1979-07-03 07:11:18.330 ,0,0,0.,12.0,0.,12.0,0.,12.0,0.,12.0
1979-07-03 07:11:30.330 ,0,0,0.,12.0,0.,12.0,0.,12.0,0.,12.0
1979-07-03 07:11:42.330 ,0,0,0.,12.0,0.,12.0,0.,12.0,0.,12.0
1979-07-03 07:11:54.330 ,0,0,0.,12.0,0.,12.0,0.,12.0,0.,12.0
1979-07-03 07:12:06.330 ,0,0,0.,12.0,0.,12.0,0.,12.0,0.,12.0
1979-07-03 07:12:18.330 ,0,0,0.,12.0,0.,12.0,0.,12.0,0.,12.0
1979-07-03 07:12:30.330 ,0,0,0.,12.0,0.,12.0,0.,12.0,0.,12.0
1979-07-03 07:12:42.330 ,0,0,0.,12.0,0.,12.0,0.,12.0,0.,12.0
1979-07-03 07:12:54.330 ,1,0,0.,12.0,0.,12.0,0.,12.0,0.,12.0
1979-07-03 07:13:06.330 ,1,0,0.,12.0,0.,12.0,0.,12.0,0.,12.0
1979-07-03 07:13:18.330 ,1,0,0.,12.0,0.,12.0,0.,12.0,0.,12.0
1979-07-03 07:13:30.330 ,1,0,0.,12.0,0.,12.0,0.,12.0,0.,12.0
1979-07-03 07:13:42.330 ,2,0,0.,12.0,0.,12.0,0.,12.0,0.,12.0
1979-07-03 07:13:54.330 ,2,0,0.,12.0,0.,12.0,0.,12.0,0.,12.0
1979-07-03 07:14:06.330 ,2,0,0.,12.0,0.,12.0,0.,12.0,0.,12.0
1979-07-03 07:14:18.330 ,2,0,0.,12.0,0.,12.0,0.,12.0,0.,12.0
1979-07-03 07:14:30.330 ,3,0,0.,12.0,0.,12.0,0.,12.0,0.,12.0
1979-07-03 07:14:42.330 ,3,0,0.,12.0,0.,12.0,0.,12.0,0.,12.0
1979-07-03 07:14:54.330 ,3,0,0.,12.0,0.,12.0,0.,12.0,0.,12.0
1979-07-03 07:15:06.330 ,3,0,0.,12.0,0.,12.0,0.,12.0,0.,12.0
1979-07-03 07:15:18.330 ,4,0,0.,12.0,0.,12.0,0.,12.0,0.,12.0
1979-07-03 07:15:30.330 ,4,0,0.,12.0,0.,12.0,0.,12.0,0.,12.0
1979-07-03 07:15:42.330 ,4,0,0.,12.0,0.,12.0,0.,12.0,0.,12.0
1979-07-03 07:15:54.330 ,4,0,0.,12.0,0.,12.0,0.,12.0,0.,12.0
1979-07-03 07:16:06.330 ,5,0,0.,12.0,0.,12.0,0.,12.0,0.,12.0
1979-07-03 07:16:18.330 ,5,0,0.,12.0,0.,12.0,0.,12.0,0.,12.0
1979-07-03 07:16:30.330 ,5,0,0.,12.0,0.,12.0,0.,12.0,0.,12.0
1979-07-03 07:16:42.330 ,5,0,0.,12.0,0.,12.0,0.,12.0,0.,12.0
1979-07-03 07:16:54.330 ,6,0,0.,12.0,0.,12.0,0.,12.0,0.,12.0
1979-07-03 07:17:06.330 ,6,0,0.,12.0,0.,12.0,0.,12.0,0.,12.0